Location: Grantsboro
(35.1404°N, 76.8424°W)
Time: 16:09:33
(UTC+00:00)

USA 238 DEB - Pass Details

Date: 18 January 2020
Orbit: 1021 x 1191 km, 63.4° (Epoch: 20 February)

Event Time Altitude Azimuth Distance (km) Brightness Sun altitude
Exits shadow 11:39:42 - 327° (NNW) 3,936 6.2 -7.4°
Reaches altitude 10° 11:42:15 10° 326° (NW) 3,036 5.6 -6.9°
Maximum altitude 11:49:32 77° 242° (WSW) 1,199 3.9 -5.5°
Drops below altitude 10° 11:56:59 10° 157° (SSE) 3,104 6.9 -4.1°
Sets 11:59:44 0° 156° (SSE) 4,069 7.5 -3.6°
